Skip Page Navigation
NASA JPL Caltech
NASA Logo - Jet Propulsion Laboratory + View the NASA Portal
+ Near-Earth Object (NEO) Program
Search JPL
JPL Home Earth Solar System Stars & Galaxies Technology
JPL Solar System Dynamics
BODIES ORBITS EPHEMERIDES TOOLS PHYSICAL DATA DISCOVERY FAQ SITE MAP
JPL Small-Body Database Browser
Search: [ help ]  
96220 (1993 SY13)
Classification: Main-belt Asteroid          SPK-ID: 2096220
Ephemeris | Orbit Diagram | Orbital Elements | Physical Parameters | Discovery Circumstances | Close-Approach Data ]

[ show orbit diagram ]
Orbital Elements at Epoch 2456800.5 (2014-May-23.0) TDB
Reference: JPL 6 (heliocentric ecliptic J2000)
 Element Value Uncertainty (1-sigma)   Units 
e .1878894452914558 9.9723e-08  
a 3.07933018873082 5.6128e-08 AU
q 2.500756547700953 3.3311e-07 AU
i 4.433909947625357 9.739e-06 deg
node 14.34839516686043 0.00011282 deg
peri 7.165468290352589 0.00011605 deg
M 288.1864115820209 3.3159e-05 deg
tp 2457194.219517270269
(2015-Jun-20.71951727)
0.00018955 JED
period 1973.707613555366
5.40
5.3963e-05
1.477e-07
d
yr
n .1823978372113126 4.987e-09 deg/d
Q 3.657903829760688 6.6674e-08 AU
  Orbit Determination Parameters
   # obs. used (total)      310  
   data-arc span      7593 days (20.79 yr)  
   first obs. used      1993-09-15  
   last obs. used      2014-06-30  
   planetary ephem.      DE431  
   SB-pert. ephem.      SB431-BIG16  
   condition code      0  
   fit RMS      .55676  
   data source      ORB  
   producer      Otto Matic  
   solution date      2014-Jul-14 14:39:12  

Additional Information
 Earth MOID = 1.50238 AU 
 T_jup = 3.196 
[ show covariance matrix ]

Ephemeris | Orbit Diagram | Orbital Elements | Physical Parameters | Discovery Circumstances | Close-Approach Data ]

Physical Parameter Table
Parameter Symbol Value Units Sigma Reference Notes
absolute magnitude H 14.8 mag n/a MPO264030  

96220 (1993 SY13)          Discovered 1993-Sep-16 by Debehogne, H., Elst, E. W. at La Silla (809)
Reference: 20050224/Numbers.arcLast Updated: 2005-02-28

[ show close-approach data ]
Alternate Designations
 1993 SY13 = 2004 TD45 
Ephemeris | Orbit Diagram | Orbital Elements | Physical Parameters | Discovery Circumstances | Close-Approach Data ]
ABOUT SSD CREDITS/AWARDS PRIVACY/COPYRIGHT GLOSSARY LINKS
FirstGov 2014-Jul-24 02:18 UT
(server date/time)  
NASA Home Page
Site Manager:   Donald K. Yeomans
Webmaster  Alan B. Chamberlin